Powrót do katalogu

CZ-4C R/B

AktywnyNaukaSSO
NORAD 68761·ROCKET BODY·🇨🇳 China

Wystrzelony Apr 17, 2026 z Jiuquan Satellite Launch Center

Loading…

Następne Przeloty (najbliższe 24 godziny)

TLE

ŚwieżeSource: Space-Track

Epoka: Sep 14, 2026, 17:00 UTC

1 68761U 26084B   26257.70901490  .00000800  00000-0  81275-4 0  9995
2 68761  98.2831 339.0821 0121295 274.0577  84.6782 14.88867924 22409

Śledź CZ-4C R/B w czasie rzeczywistym z AllMySat

Download on the App Store